• In Deutschland
  • Länderverzeichnis
  • Für 7 Tage
  • Wassertemperatur
  • Satellitenkarten
  • Wetterkarte
  • Widgets
  • user-avatar
    Anmelden

    Stündliche Wetter Sonthofen

    Heute, 19 Oktober, Donnerstag

    Zeit Temperatur Niederschläge Wind Luftdruck Luftfeuchtigkeit
    00:00 +9°C° 0 mm 2 m/S 694 mmHg 68%
    01:00 +9°C° 0 mm 2 m/S 694 mmHg 66%
    02:00 +9°C° 0 mm 2 m/S 694 mmHg 64%
    03:00 +9°C° 0 mm 2 m/S 693 mmHg 62%
    04:00 +9°C° 0 mm 2 m/S 693 mmHg 60%
    05:00 +8°C° 0 mm 2 m/S 693 mmHg 58%
    06:00 +8°C° 0 mm 2 m/S 693 mmHg 56%
    07:00 +8°C° 0 mm 2 m/S 693 mmHg 55%
    08:00 +12°C° 0 mm 1 m/S 694 mmHg 51%
    09:00 +15°C° 0 mm 1 m/S 694 mmHg 47%
    10:00 +16°C° 0 mm 0 m/S 694 mmHg 43%
    11:00 +19°C° 0 mm 1 m/S 694 mmHg 42%
    12:00 +20°C° 0 mm 1 m/S 694 mmHg 40%
    13:00 +21°C° 0 mm 1 m/S 694 mmHg 39%
    14:00 +21°C° 0 mm 1 m/S 694 mmHg 46%
    15:00 +20°C° 0 mm 1 m/S 693 mmHg 53%
    16:00 +19°C° 0 mm 1 m/S 693 mmHg 60%
    17:00 +16°C° 0 mm 1 m/S 693 mmHg 65%
    18:00 +14°C° 0 mm 1 m/S 693 mmHg 69%
    19:00 +12°C° 0 mm 2 m/S 693 mmHg 73%
    20:00 +10°C° 0 mm 2 m/S 693 mmHg 72%
    21:00 +10°C° 0 mm 2 m/S 693 mmHg 71%
    22:00 +10°C° 0 mm 2 m/S 693 mmHg 70%
    23:00 +10°C° 0 mm 2 m/S 693 mmHg 70%

    Morgen, 20 Oktober, Freitag

    Zeit Temperatur Niederschläge Wind Luftdruck Luftfeuchtigkeit
    00:00 +9°C° 0 mm 2 m/S 693 mmHg 70%
    01:00 +9°C° 0 mm 2 m/S 693 mmHg 71%
    02:00 +9°C° 0 mm 2 m/S 693 mmHg 71%
    03:00 +9°C° 0 mm 2 m/S 693 mmHg 72%
    04:00 +9°C° 0 mm 2 m/S 693 mmHg 73%
    05:00 +9°C° 0 mm 2 m/S 694 mmHg 73%
    06:00 +9°C° 0 mm 2 m/S 694 mmHg 73%
    07:00 +9°C° 0 mm 2 m/S 694 mmHg 73%
    08:00 +12°C° 0 mm 2 m/S 694 mmHg 67%
    09:00 +15°C° 0 mm 1 m/S 695 mmHg 61%
    10:00 +18°C° 0 mm 1 m/S 695 mmHg 55%
    11:00 +19°C° 0 mm 1 m/S 695 mmHg 54%
    12:00 +18°C° 0 mm 2 m/S 695 mmHg 52%
    13:00 +19°C° 0 mm 2 m/S 695 mmHg 51%
    14:00 +18°C° 0 mm 2 m/S 695 mmHg 56%
    15:00 +19°C° 0 mm 1 m/S 695 mmHg 62%
    16:00 +18°C° 0 mm 1 m/S 695 mmHg 67%
    17:00 +15°C° 0 mm 1 m/S 695 mmHg 74%
    18:00 +13°C° 0 mm 1 m/S 695 mmHg 80%
    19:00 +11°C° 0 mm 1 m/S 696 mmHg 87%
    20:00 +11°C° 0 mm 1 m/S 696 mmHg 86%
    21:00 +11°C° 0 mm 1 m/S 696 mmHg 85%
    22:00 +10°C° 0 mm 2 m/S 696 mmHg 84%
    23:00 +10°C° 0 mm 2 m/S 696 mmHg 83%

    übermorgen, 21 Oktober, Samstag

    Zeit Temperatur Niederschläge Wind Luftdruck Luftfeuchtigkeit
    00:00 +10°C° 0 mm 2 m/S 696 mmHg 82%
    01:00 +9°C° 0 mm 2 m/S 696 mmHg 81%
    02:00 +9°C° 0 mm 2 m/S 696 mmHg 78%
    03:00 +10°C° 0 mm 2 m/S 696 mmHg 76%
    04:00 +10°C° 0 mm 2 m/S 695 mmHg 74%
    05:00 +10°C° 0 mm 2 m/S 696 mmHg 72%
    06:00 +10°C° 0 mm 2 m/S 696 mmHg 69%
    07:00 +12°C° 0 mm 1 m/S 696 mmHg 67%
    08:00 +13°C° 0 mm 1 m/S 696 mmHg 64%
    09:00 +15°C° 0 mm 1 m/S 696 mmHg 61%
    10:00 +18°C° 0 mm 1 m/S 696 mmHg 58%
    11:00 +19°C° 0 mm 1 m/S 696 mmHg 54%
    12:00 +20°C° 0 mm 1 m/S 696 mmHg 50%
    13:00 +21°C° 0 mm 1 m/S 696 mmHg 46%
    14:00 +21°C° 0 mm 1 m/S 696 mmHg 51%
    15:00 +20°C° 0 mm 1 m/S 695 mmHg 57%
    16:00 +19°C° 0 mm 1 m/S 695 mmHg 62%
    17:00 +16°C° 0 mm 1 m/S 695 mmHg 69%
    18:00 +14°C° 0 mm 1 m/S 695 mmHg 76%
    19:00 +12°C° 0 mm 1 m/S 695 mmHg 83%
    20:00 +12°C° 0,2 mm 2 m/S 695 mmHg 87%
    21:00 +10°C° 0,2 mm 2 m/S 696 mmHg 90%
    22:00 +10°C° 0,2 mm 2 m/S 696 mmHg 94%
    23:00 +10°C° 0,9 mm 2 m/S 696 mmHg 94%

    22 Oktober, Sonntag

    Zeit Temperatur Niederschläge Wind Luftdruck Luftfeuchtigkeit
    00:00 +9°C° 0,9 mm 2 m/S 696 mmHg 95%
    01:00 +8°C° 0,9 mm 2 m/S 696 mmHg 96%
    02:00 +8°C° 0,8 mm 2 m/S 695 mmHg 96%
    03:00 +8°C° 0,8 mm 2 m/S 695 mmHg 96%
    04:00 +8°C° 0,8 mm 2 m/S 695 mmHg 96%
    05:00 +7°C° 1,4 mm 2 m/S 695 mmHg 96%
    06:00 +7°C° 1,4 mm 2 m/S 695 mmHg 96%
    07:00 +7°C° 1,4 mm 2 m/S 694 mmHg 96%
    08:00 +7°C° 1,7 mm 2 m/S 695 mmHg 96%
    09:00 +6°C° 1,7 mm 2 m/S 695 mmHg 95%
    10:00 +5°C° 1,7 mm 3 m/S 695 mmHg 94%
    11:00 +5°C° 0,9 mm 3 m/S 695 mmHg 93%
    12:00 +5°C° 0,9 mm 3 m/S 695 mmHg 91%
    13:00 +5°C° 0,9 mm 3 m/S 695 mmHg 90%
    14:00 +5°C° 0,5 mm 3 m/S 695 mmHg 90%
    15:00 +6°C° 0,5 mm 2 m/S 695 mmHg 91%
    16:00 +6°C° 0,5 mm 2 m/S 695 mmHg 91%
    17:00 +5°C° 0,4 mm 2 m/S 695 mmHg 93%
    18:00 +5°C° 0,4 mm 2 m/S 695 mmHg 94%
    19:00 +3°C° 0,4 mm 3 m/S 696 mmHg 95%
    20:00 +3°C° 0,4 mm 3 m/S 696 mmHg 95%
    21:00 +3°C° 0,4 mm 3 m/S 696 mmHg 95%
    22:00 +3°C° 0,4 mm 3 m/S 696 mmHg 95%
    23:00 +3°C° 0,4 mm 3 m/S 696 mmHg 96%

    23 Oktober, Montag

    Zeit Temperatur Niederschläge Wind Luftdruck Luftfeuchtigkeit
    00:00 +3°C° 0,4 mm 3 m/S 696 mmHg 96%
    01:00 +3°C° 0,4 mm 3 m/S 696 mmHg 96%
    02:00 +3°C° 0,4 mm 3 m/S 696 mmHg 96%
    03:00 +3°C° 0,4 mm 3 m/S 696 mmHg 96%
    04:00 +3°C° 0,4 mm 3 m/S 696 mmHg 96%
    05:00 +3°C° 0,6 mm 3 m/S 697 mmHg 96%
    06:00 +3°C° 0,6 mm 3 m/S 697 mmHg 96%
    07:00 +3°C° 0,6 mm 3 m/S 697 mmHg 96%
    08:00 +3°C° 0,7 mm 3 m/S 697 mmHg 96%
    09:00 +4°C° 0,7 mm 3 m/S 698 mmHg 95%
    10:00 +4°C° 0,7 mm 3 m/S 698 mmHg 95%
    11:00 +4°C° 0,4 mm 3 m/S 698 mmHg 94%
    12:00 +5°C° 0,4 mm 3 m/S 698 mmHg 94%
    13:00 +5°C° 0,4 mm 3 m/S 698 mmHg 94%
    14:00 +5°C° 0,1 mm 3 m/S 698 mmHg 94%
    15:00 +5°C° 0,1 mm 3 m/S 698 mmHg 93%
    16:00 +6°C° 0,1 mm 2 m/S 698 mmHg 93%
    17:00 +6°C° 0 mm 2 m/S 699 mmHg 93%
    18:00 +5°C° 0 mm 2 m/S 699 mmHg 93%
    19:00 +5°C° 0 mm 2 m/S 699 mmHg 93%
    20:00 +5°C° 0,1 mm 2 m/S 700 mmHg 93%
    21:00 +5°C° 0,1 mm 2 m/S 700 mmHg 92%
    22:00 +5°C° 0,1 mm 2 m/S 700 mmHg 92%
    23:00 +4°C° 0 mm 2 m/S 700 mmHg 92%

    24 Oktober, Dienstag

    Zeit Temperatur Niederschläge Wind Luftdruck Luftfeuchtigkeit
    00:00 +4°C° 0 mm 2 m/S 700 mmHg 92%
    01:00 +3°C° 0 mm 2 m/S 700 mmHg 92%
    02:00 +3°C° 0 mm 2 m/S 700 mmHg 91%
    03:00 +3°C° 0 mm 2 m/S 700 mmHg 91%
    04:00 +4°C° 0 mm 1 m/S 699 mmHg 90%
    05:00 +4°C° 0 mm 1 m/S 699 mmHg 89%
    06:00 +3°C° 0 mm 2 m/S 699 mmHg 88%
    07:00 +4°C° 0 mm 2 m/S 699 mmHg 87%
    08:00 +7°C° 0 mm 1 m/S 700 mmHg 86%
    09:00 +9°C° 0 mm 1 m/S 700 mmHg 86%
    10:00 +11°C° 0 mm 1 m/S 700 mmHg 86%
    11:00 +12°C° 0 mm 1 m/S 700 mmHg 83%
    12:00 +13°C° 0 mm 1 m/S 700 mmHg 81%
    13:00 +14°C° 0 mm 1 m/S 700 mmHg 78%
    14:00 +14°C° 0 mm 1 m/S 699 mmHg 81%
    15:00 +13°C° 0 mm 1 m/S 699 mmHg 84%
    16:00 +13°C° 0 mm 1 m/S 699 mmHg 88%
    17:00 +11°C° 0 mm 1 m/S 699 mmHg 89%
    18:00 +10°C° 0 mm 1 m/S 699 mmHg 90%
    19:00 +8°C° 0 mm 1 m/S 699 mmHg 91%
    20:00 +7°C° 0 mm 2 m/S 699 mmHg 89%
    21:00 +7°C° 0 mm 2 m/S 700 mmHg 88%
    22:00 +7°C° 0 mm 2 m/S 700 mmHg 87%
    23:00 +7°C° 0 mm 2 m/S 700 mmHg 86%
    Mehr zeigen